Hourly Data Report for September 27, 2022

TORONTO CITY
ONTARIO
Current Station Operator: ECCC - MSC

43°40'00.000" N
79°24'00.000" W
112.50 m
6158355
71508
XTO

Download Data

Hourly Data (September 2022)
Hourly Data Report for September 27, 2022
TIME
LST
Temp Definition
°C
Dew Point Definition
°C
Rel Hum Definition
%
Precip. Amount Definition
mm

Wind Dir Definition
10's deg

Wind Spd Definition
km/h
Visibility Definition
km
Stn Press Definition
kPa
Hmdx Definition


Wind Chill Definition


Weather Definition


00:00 13.1 10.1 82 0.0       98.91     LegendNANA
01:00 13.2 10.1 81 0.0       98.96     LegendNANA
02:00 13.2 10.4 83 0.0       98.98     LegendNANA
03:00 13.1 10.2 82 0.0       99.01     LegendNANA
04:00 13.0 10.2 83 0.0       99.03     LegendNANA
05:00 12.5 9.9 84 0.0       99.08     LegendNANA
06:00 12.6 10.0 84 0.0       99.15     LegendNANA
07:00 12.8 10.1 83 0.0       99.21     LegendNANA
08:00 13.4 10.2 81 0.0       99.25     LegendNANA
09:00 14.0 10.1 77 0.0       99.31     LegendNANA
10:00 15.0 10.8 76 0.0       99.37     LegendNANA
11:00 15.5 10.2 71 0.0       99.41     LegendNANA
12:00 15.8 10.0 68 0.0       99.44     LegendNANA
13:00 16.9 10.4 66 0.0       99.45     LegendNANA
14:00 15.1 11.2 77 0.6       99.49     LegendNANA
15:00 14.5 11.6 82 0.3       99.57     LegendNANA
16:00 13.3 11.5 89 0.6       99.63     LegendNANA
17:00 13.7 11.7 88 0.2       99.70     LegendNANA
18:00 13.1 11.8 92 0.5       99.77     LegendNANA
19:00 12.9 11.5 91 1.3       99.87     LegendNANA
20:00 12.8 11.7 93 0.5       99.92     LegendNANA
21:00 13.0 11.5 91 0.0       100.00     LegendNANA
22:00 13.0 11.2 89 0.0       100.06     LegendNANA
23:00 12.8 10.8 87 0.0       100.14     LegendNANA

Notes on Data Quality.

Legend

  • E = Estimated
  • M = Missing
  • NA = Not Available*
  • [empty] = Indicates an unobserved value
Date modified: